"Pseudo-MPEC" for P117W7N

Created 2020 Oct 25 16:07:20 UT using Find_Orb

Click here for an explanation of pseudo-MPECs

 
 Astrometry: 
     P117W7N  C2020 10 15F6dn15T(Vj2Astrometryo:w9A4mw8tGqD6aPnqv*[D;pyDC0u].F51
     P117W7N  C2020 10 154Xv\VRtPEN\5PP`'[AKPk$NqG_m_m[=C=su8#u]RPsAZ$(a_#gioF51
     P117W7N  C2020 10 15kfm#3Rpoo92Ch$d,ni(Nm0j,3Wv\:#o=6G3redacted;+qrnnPn2F51
     P117W7N  C2020 10 15l!Z\)/)clickmhereS6Zd2=fLfort6i07Vp.6hVexplanation^rF51

Station data:
(F51) Pan-STARRS 1, Haleakala  (N20.707235 W156.255910)  US/Hawaii.
   Observers N. Primak, A. Schultz, S. Watters, J. Thiel, T. Goggia. Measurer
   PS1 Science Consortium. 1.8-m Ritchey-Chrétien + CCD.

Orbital elements:  P117W7N
   Perihelion 2020 Sep 15.480994 +/- 34.1 TT = 11:32:37 (JD 2459107.980994)
Epoch 2020 Oct 15.0 TT = JDT 2459137.5   Earth MOID: 0.0113   AutoNEOCP
M  23.73204462 +/- 22               (J2000 ecliptic)
n   0.80395812 +/- 0.413            Peri.  139.64118 +/- 70
a   1.14546132 +/- 0.392            Node   211.73151 +/- 70
e   0.1141591 +/- 0.245             Incl.    0.64845 +/- 0.9
P   1.23/447.78d           H 28.1   G  0.15   U 12.1  SR
q 1.01469640 +/- 0.279    Q 1.27622624 +/- 43.4
From 4 observations 2020 Oct. 15 (48.0 min); mean residual 0".07
Residuals in arcseconds: 
201015 F51  .02-  .04-    201015 F51  .15+  .04-    
201015 F51  .04-  .09+    201015 F51  .08-  .00     

Ephemerides (geocentric):
Date (UTC) HH   RA              Dec         delta   r     elong  mag " sig PA
---- -- -- --  -------------   -----------  ------ ------ -----  --- ---- ---
2020 10 25 16  00 52 50.156   +05 43 22.66  .04793 1.0399 162.0 22.5  47d   1
2020 10 25 17  00 52 59.848   +05 43 44.47  .04799 1.0399 162.0 22.5  47d   1
2020 10 25 18  00 53 09.521   +05 44 06.25  .04805 1.0400 162.0 22.5  47d   1
2020 10 25 19  00 53 19.173   +05 44 28.00  .04812 1.0400 161.9 22.5  47d   1
2020 10 25 20  00 53 28.805   +05 44 49.73  .04818 1.0401 161.9 22.5  47d   1
2020 10 25 21  00 53 38.418   +05 45 11.42  .04825 1.0401 161.9 22.5  47d   1
2020 10 25 22  00 53 48.011   +05 45 33.08  .04831 1.0402 161.9 22.5  47d   1
2020 10 25 23  00 53 57.584   +05 45 54.70  .04838 1.0402 161.9 22.5  47d   1
2020 10 26 00  00 54 07.138   +05 46 16.30  .04844 1.0403 161.9 22.5  47d   1
2020 10 26 01  00 54 16.672   +05 46 37.87  .04851 1.0403 161.9 22.5  47d   1
2020 10 26 02  00 54 26.187   +05 46 59.41  .04857 1.0404 161.9 22.5  47d   1
2020 10 26 03  00 54 35.683   +05 47 20.92  .04864 1.0404 161.9 22.5  47d   1
2020 10 26 04  00 54 45.159   +05 47 42.40  .04870 1.0405 161.9 22.5  47d   1
2020 10 26 05  00 54 54.615   +05 48 03.85  .04877 1.0405 161.9 22.5  47d   1
2020 10 26 06  00 55 04.053   +05 48 25.27  .04883 1.0406 161.9 22.5  47d   1
2020 10 26 07  00 55 13.471   +05 48 46.67  .04890 1.0406 161.9 22.5  47d   1
2020 10 26 08  00 55 22.870   +05 49 08.03  .04896 1.0407 161.9 22.5  47d   1
2020 10 26 09  00 55 32.251   +05 49 29.36  .04903 1.0407 161.9 22.5  47d   1
2020 10 26 10  00 55 41.612   +05 49 50.67  .04910 1.0408 161.9 22.5  47d   1
2020 10 26 11  00 55 50.954   +05 50 11.94  .04916 1.0408 161.9 22.5  47d   1
2020 10 26 12  00 56 00.277   +05 50 33.19  .04923 1.0409 161.9 22.5  47d   1
2020 10 26 13  00 56 09.581   +05 50 54.41  .04929 1.0409 161.9 22.5  47d   1
2020 10 26 14  00 56 18.867   +05 51 15.60  .04936 1.0410 161.9 22.6  47d   1
2020 10 26 15  00 56 28.133   +05 51 36.77  .04942 1.0410 161.9 22.6  47d   1
2020 10 26 16  00 56 37.381   +05 51 57.90  .04949 1.0411 161.9 22.6  48d   1
2020 10 26 17  00 56 46.611   +05 52 19.01  .04956 1.0411 161.9 22.6  48d   1
2020 10 26 18  00 56 55.822   +05 52 40.09  .04962 1.0412 161.9 22.6  48d   1
2020 10 26 19  00 57 05.014   +05 53 01.14  .04969 1.0412 161.9 22.6  48d   1
2020 10 26 20  00 57 14.188   +05 53 22.17  .04975 1.0413 161.9 22.6  48d   1
2020 10 26 21  00 57 23.343   +05 53 43.16  .04982 1.0413 161.9 22.6  48d   1
2020 10 26 22  00 57 32.480   +05 54 04.13  .04989 1.0414 161.9 22.6  48d   1
2020 10 26 23  00 57 41.599   +05 54 25.08  .04995 1.0414 161.9 22.6  48d   1
2020 10 27 00  00 57 50.699   +05 54 45.99  .05002 1.0415 161.8 22.6  48d   1
2020 10 27 01  00 57 59.781   +05 55 06.88  .05009 1.0415 161.8 22.6  48d   1
2020 10 27 02  00 58 08.845   +05 55 27.74  .05015 1.0416 161.8 22.6  48d   1
2020 10 27 03  00 58 17.891   +05 55 48.58  .05022 1.0416 161.8 22.6  48d   1
2020 10 27 04  00 58 26.919   +05 56 09.39  .05029 1.0417 161.8 22.6  48d   1
2020 10 27 05  00 58 35.928   +05 56 30.17  .05035 1.0417 161.8 22.6  48d   1
2020 10 27 06  00 58 44.920   +05 56 50.93  .05042 1.0418 161.8 22.6  48d   1
2020 10 27 07  00 58 53.894   +05 57 11.66  .05049 1.0418 161.8 22.6  48d   1
2020 10 27 08  00 59 02.850   +05 57 32.36  .05055 1.0419 161.8 22.6  48d   1
2020 10 27 09  00 59 11.788   +05 57 53.04  .05062 1.0419 161.8 22.6  48d   1
2020 10 27 10  00 59 20.708   +05 58 13.69  .05069 1.0420 161.8 22.6  48d   1
2020 10 27 11  00 59 29.611   +05 58 34.32  .05075 1.0420 161.8 22.6  48d   1
2020 10 27 12  00 59 38.496   +05 58 54.92  .05082 1.0421 161.8 22.6  48d   1
2020 10 27 13  00 59 47.364   +05 59 15.50  .05089 1.0421 161.8 22.6  48d   1
2020 10 27 14  00 59 56.213   +05 59 36.05  .05095 1.0422 161.8 22.6  48d   1
2020 10 27 15  01 00 05.046   +05 59 56.57  .05102 1.0422 161.8 22.6  48d   1